This is the latest recevied weather packets stored in our database for station/object XE2VP-WX. If no packets are shown the sender has not sent any weather packets the latest 1 day(s).
| Time | Temp. | Humidity | Pressure | Rain* | Wind** | Luminosity | Snow |
|---|---|---|---|---|---|---|---|
| 1778084050 | 30.56° C | 56% | 941.6 hPa | 0 mm | - | 839 W/m² | - |
| 1778083931 | 30° C | 58% | 941.5 hPa | 0 mm | - | 861 W/m² | - |
| 1778083631 | 30.56° C | 57% | 941.5 hPa | 0 mm | - | 865 W/m² | - |
| 1778083331 | 30° C | 57% | 941.6 hPa | 0 mm | - | 816 W/m² | - |
| 1778083270 | 30° C | 58% | 941.6 hPa | 0 mm | - | 796 W/m² | - |
| 1778083149 | 29.44° C | 58% | 941.6 hPa | 0 mm | - | 786 W/m² | - |
| 1778082969 | 29.44° C | 59% | 941.6 hPa | 0 mm | - | 767 W/m² | - |
| 1778082665 | 29.44° C | 58% | 941.6 hPa | 0 mm | - | 744 W/m² | - |
| 1778082359 | 28.89° C | 61% | 941.6 hPa | 0 mm | - | 743 W/m² | - |
| 1778082058 | 28.89° C | 62% | 941.5 hPa | 0 mm | - | 726 W/m² | - |
| 1778081997 | 28.89° C | 62% | 941.5 hPa | 0 mm | - | 722 W/m² | - |
| 1778081813 | 28.89° C | 62% | 941.5 hPa | 0 mm | - | 643 W/m² | - |
| 1778081751 | 28.89° C | 62% | 941.5 hPa | 0 mm | - | 649 W/m² | - |
| 1778081632 | 28.89° C | 61% | 941.4 hPa | 0 mm | - | 602 W/m² | - |
| 1778081087 | 28.33° C | 62% | 941.3 hPa | 0 mm | - | 587 W/m² | - |
| 1778080967 | 28.33° C | 63% | 941.3 hPa | 0 mm | - | 504 W/m² | - |
| 1778080667 | 27.78° C | 65% | 941.4 hPa | 0 mm | - | 553 W/m² | - |
| 1778080547 | 27.22° C | 65% | 941.4 hPa | 0 mm | - | 574 W/m² | - |
| 1778080068 | 27.22° C | 69% | 941.4 hPa | 0 mm | - | 493 W/m² | - |
| 1778080007 | 27.22° C | 69% | 941.4 hPa | 0 mm | - | 525 W/m² | - |
| 1778079766 | 27.22° C | 69% | 941.4 hPa | 0 mm | - | 553 W/m² | - |
| 1778079586 | 27.22° C | 69% | 941.4 hPa | 0 mm | - | 500 W/m² | - |
| 1778079466 | 27.22° C | 70% | 941.4 hPa | 0 mm | - | 505 W/m² | - |
| 1778079342 | 27.22° C | 69% | 941.4 hPa | 0 mm | - | 478 W/m² | - |
| 1778079042 | 26.67° C | 70% | 941.3 hPa | 0 mm | - | 482 W/m² | - |
* Rain latest hour (hover to see other rain measurements)
** Current wind speed in m/s (hover to see current wind gust speed)